Regional Weather Roundup
Issued by NWS Wilmington, NC

Home | Current Version | Previous Version | Text Only | Print | Product List | Glossary On
Versions: 1 2 3 4 5 6 7 8 9 10 11 12 13 14 15 16 17 18 19 20 21 22 23 24 25 26 27
000
ASUS42 KILM 211913
RWRILM
RWRILM
REGIONAL HOURLY WEATHER ROUNDUP
NATIONAL WEATHER SERVICE WILMINGTON NC
300 PM EDT THU SEP 21 2017

NOTE: "FAIR" INDICATES FEW OR NO CLOUDS BELOW 12,000 FEET WITH NO
SIGNIFICANT WEATHER AND/OR OBSTRUCTIONS TO VISIBILITY.

...............WFO WILMINGTON COUNTY WARNING AREA...............

......COASTAL NC AND SC COUNTIES......

CITY           SKY/WX    TMP DP  RH WIND       PRES   REMARKS
WILMINGTON     MOSUNNY   86  73  65 SE6       29.97F HX  93
N MYRTLE BEACH TSTM      82  75  79 S10       29.98F
MYRTLE BEACH   SUNNY     86  74  67 S9        30.00F HX  94

......INLAND NC AND SC COUNTIES.......

CITY           SKY/WX    TMP DP  RH WIND       PRES   REMARKS
LUMBERTON      MOSUNNY   90  67  46 W7        29.97F HX  93
ELIZABETHTOWN  NOT AVBL
WHITEVILLE     MOSUNNY   89  66  45 E3        29.98F HX  92
FLORENCE       MOSUNNY   91  66  43 N6        29.98F HX  93
DARLINGTON     MOSUNNY   82  72  71 SW9       30.01R
KINGSTREE      FAIR      90  68  48 NE6       29.98F HX  93
HARTSVILLE     RAIN      77  66  69 E6        30.00F
BENNETTSVILLE  FAIR      95  63  34 NW6       29.98F HX  96
CONWAY         FAIR      90  68  48 CALM      29.98F HAZE    HX  93
GEORGETOWN     FAIR      82  77  83 SE8       30.00F HX  91
MARION         FAIR      90  68  48 N3        29.99F HAZE    HX  93

....................REST OF NORTH CAROLINA......................

.........EASTERN NC.........

CITY           SKY/WX    TMP DP  RH WIND       PRES   REMARKS
CAPE HATTERAS  SUNNY     86  64  47 VRB5      29.99F
JACKSONVILLE   MOSUNNY   89  68  49 CALM      29.98F HX  93
MOREHEAD CITY  MOSUNNY   83  72  69 VRB3      29.99F
KENANSVILLE    MOSUNNY   88  68  51 CALM      29.98F HX  91
NEW BERN       TSTM      68  68 100 CALM      30.02R FOG
ELIZABETH CITY MOSUNNY   88  67  49 N6        29.99F HX  91

.........CENTRAL NC.........

CITY           SKY/WX    TMP DP  RH WIND       PRES   REMARKS
RALEIGH DURHAM MOSUNNY   87  64  46 N5        30.01F THUNDER
ROCKY MOUNT    TSTM      76  71  85 S12G17    30.01F
ROANOKE RAPIDS NOT AVBL
FAYETTEVILLE   SUNNY     91  66  43 E6        29.98F HX  93
HOFFMAN        MOSUNNY   88  62  40 CALM      29.99F

.........WESTERN NC.........

CITY           SKY/WX    TMP DP  RH WIND       PRES   REMARKS
CHARLOTTE      MOSUNNY   88  62  41 VRB5      30.04F
GREENSBORO     MOSUNNY   85  65  51 VRB6      30.04F
HICKORY        NOT AVBL
BOONE          NOT AVBL
ASHEVILLE      NOT AVBL

.....................REST OF SOUTH CAROLINA.....................

.........EASTERN SC.........

CITY           SKY/WX    TMP DP  RH WIND       PRES   REMARKS
CHARLESTON     PTSUNNY   89  73  59 S12G17    29.99F HX  97
BEAUFORT MCAS  MOSUNNY   90  73  57 VRB5      29.99F HX  98
HILTON HEAD    SUNNY     84  73  70 S6        30.01F HX  91

.........CENTRAL SC.........

CITY           SKY/WX    TMP DP  RH WIND       PRES   REMARKS
COLUMBIA       MOSUNNY   92  63  38 VRB6      29.98F HX  93
ORANGEBURG     MOSUNNY   92  66  42 VRB6      29.99F HX  94
SUMTER SHAW    MOSUNNY   93  64  37 N5        29.96F HX  95

.........WESTERN SC.........

CITY           SKY/WX    TMP DP  RH WIND       PRES   REMARKS
GREENVILLE     NOT AVBL
ROCK HILL        N/A    N/A N/A N/A MISG      30.04F
ANDERSON       PTSUNNY   88  65  46 VRB6      30.03F HX  90
CLEMSON        NOT AVBL
GREENWOOD      PTSUNNY   89  66  46 N6        30.03F HX  91


...................COASTAL AND OFFSHORE REPORTS..................

................LOCAL PIERS AND NC RESERVE................


STATION/POSITION TIME  SKY/WX   TEMP    WIND        PRES    VSBY
                                AIR SEA DIR/SP/G
                 (UTC)          (F)     (DEG/KT/KT) (MB)    (MI)
JOHNY MRCER PIER 1848            79 82  150/  8/ 10 1014.4F
NC RESRV MASNBRO 1745            89     160/  3     1017.0
OCEAN CREST PIER NOT AVBL
SPRINGMAID  PIER 1848                               1014.8F


................COASTAL AND OFFSHORE BUOYS................


STATION/POSITION TIME  SKY/WX   TEMP    WIND        PRES    VSBY
                                AIR SEA DIR/SP/G
                 (UTC)          (F)     (DEG/KT/KT) (MB)    (MI)
DIMNDSHOAL 41025 1850            78 78   30/  4/  6 1015.5F
WVE H/P(F/S)=  5/11 SWL H/P/D(F/S/D)=  5/ 90/11

CAPE LOOKOUT     1900            80     140/  6/  7 1015.4F
ONSLOW BAY 41036 NOT AVBL
ONSLOW BAY 41064 1808            81      30/  2/  4 1016.2F
ONSLOW BAY 41159 NOT AVBL
MASNBO INL 41110 1859               80                N/A
WVE H/P(F/S)=  2/11 SWL H/P/D(F/S/D)=  2/120/11

WILM HARBR 41108 1900               83                N/A
WVE H/P(F/S)=  2/11 SWL H/P/D(F/S/D)=  2/130/11

27SE WRITB 41037 1808            81 81  270/  2/  4 1016.3F
FRYING PAN 41013 1850            81 82  190/  4/  6 1015.8F
WVE H/P(F/S)=  3/11 SWL H/P/D(F/S/D)=  2/120/11

SUNST NRSH 41024 1808            80 81  190/  6/  8 1015.9F
CAPRS NRSH 41029 1808            80 82  180/ 10/ 12 1016.3F
EDISTO     41004 1850            81 81   CALM  /  4 1015.9F
WVE H/P(F/S)=  2/11 SWL H/P/D(F/S/D)=  2/130/11



..........OFFSHORE BUOYS BEYOND 100 NM OFFSHORE...........
.....IN A TRIANGLE---HAT TO BERMUDA TO BAHAMAS TO HAT.....


STATION/POSITION TIME  SKY/WX   TEMP    WIND        PRES    VSBY
                                AIR SEA DIR/SP/G
                 (UTC)          (F)     (DEG/KT/KT) (MB)    (MI)
150E HAT   41001 NOT AVBL
W BERMUDA  41048 1900            80 80  300/  8/ 10 1016.2
ATLANTIC S 41049 1850            82 84  130/ 10/ 14 1016.5F
WVE H/P(F/S)=  7/10 SWL H/P/D(F/S/D)=  7/160/10

E BAHAMAS  41046 1900            81 84   90/ 21/ 27 1011.2
NE BAHAMAS 41047 1900            83 84   90/ 12/ 14 1014.3
120E CANVRL41010 1850               85   50/ 12/ 14 1015.5F
WVE H/P(F/S)=  4/11 SWL H/P/D(F/S/D)=  3/11


END




USA.gov is the U.S. government's official web portal to all federal, state and local government web resources and services.